Miscellaneous Local Product
Issued by NWS Hastings, NE

Home | Current Version | Previous Version | Text Only | Print | Product List | Glossary Off
Versions: 1 2 3 4 5 6 7 8 9 10 11 12 13 14 15 16 17 18 19 20 21 22 23 24 25 26 27 28 29 30 31 32 33 34 35 36 37 38 39 40 41 42 43 44 45 46 47 48 49 50

000
AXUS43 KGID 210602
MISGRI

GID CWA HOURLY WEATHER ROUNDUP
NATIONAL WEATHER SERVICE HASTINGS NE
100 AM CDT THU AUG 21 2014

NOTE: "FAIR" INDICATES FEW OR NO CLOUDS BELOW 12,000 FEET WITH NO
SIGNIFICANT WEATHER AND/OR OBSTRUCTIONS TO VISIBILITY.

...SOUTH CENTRAL NEBRASKA...

CITY           SKY/WX    TMP DP  RH WIND       PRES   REMARKS
GRAND ISLAND   FAIR      81  68  64 S16       29.76F
HASTINGS       LGT RAIN  78  66  66 S5        29.79S
KEARNEY        MOCLDY    75  64  69 SW12G33   29.82R THUNDER
ORD            MOCLDY    77  70  79 S9        29.76R
YORK           FAIR      81 N/A N/A S14G20    29.77S
AURORA         FAIR      79  71  74 SW9       29.78R
LEXINGTON      CLOUDY    71  65  81 E6        29.81S
HOLDREGE       MOCLDY    77  64  63 NW7       29.82R
HEBRON         FAIR      80  64  59 S10G17    29.78S

...NEBRASKA PANHANDLE...

CITY           SKY/WX    TMP DP  RH WIND       PRES   REMARKS
CHADRON        CLEAR     65  52  62 CALM      29.84R
ALLIANCE       PTCLDY    73  55  53 SW15      29.88R
SCOTTSBLUFF    MOCLDY    72  50  45 SW3       29.91S
SIDNEY         LGT RAIN  65  59  81 W9        29.95S

...WESTERN AND NORTH CENTRAL NEBRASKA...

CITY           SKY/WX    TMP DP  RH WIND       PRES   REMARKS
VALENTINE      PTCLDY    73  60  63 W7        29.76R
AINSWORTH      CLEAR     75  69  81 W6        29.76R
ONEILL         MOCLDY    78  73  87 SE8       29.72F
BROKEN BOW     LGT RAIN  76  64  66 S9        29.78S
IMPERIAL       MOCLDY    70  64  81 W9        29.85R
NORTH PLATTE   CLOUDY    73  60  63 SE9       29.80R
MCCOOK         MOCLDY    75  62  64 E6        29.79F

...EASTERN NEBRASKA...

CITY           SKY/WX    TMP DP  RH WIND       PRES   REMARKS
NORFOLK        FAIR      78  69  73 SE9       29.74S
SO SIOUX CITY  FAIR      77  73  87 SE12      29.75S
TEKAMAH        FAIR      78  73  84 SE9       29.77R
COLUMBUS       FAIR      64  64 100 S10G20    29.76S
ALBION         FAIR      77  69  74 S7        29.75S
OMAHA EPPLEY   FAIR      80  72  76 S13       29.79R
OFFUTT AFB     FAIR      78  77  96 SE9       29.79S
MILLARD        FAIR      80  73  78 SE8       29.78S
LINCOLN        FAIR      83  68  60 S16       29.77S
NEBRASKA CITY  FAIR      78  70  76 S13       29.82S
BEATRICE       FAIR      81  69  67 S14       29.80S
FALLS CITY     FAIR      81  68  64 S12       29.83R

...NORTHERN KANSAS...

CITY           SKY/WX    TMP DP  RH WIND       PRES   REMARKS
GOODLAND       CLEAR     66  60  81 CALM      29.85F
HILL CITY      FAIR      86  61  42 S9        29.77S
NORTON         CLEAR     81  57  44 SW3       29.78R
PHILLIPSBURG   CLEAR     82  63  51 E6        29.78R
SMITH CENTER   PTCLDY    81  63  54 S10       29.79S
BELOIT         CLEAR     81  64  57 S12       29.77S
HAYS           FAIR      82  61  47 S17G24    29.81R
RUSSELL        FAIR      82  62  50 S17G25    29.80R
CONCORDIA      FAIR      80  66  62 S18G25    29.79F
SALINA         FAIR      82  65  56 S16G26    29.82R
TOPEKA         FAIR      83  70  64 S12       29.87R



USA.gov is the U.S. government's official web portal to all federal, state and local government web resources and services.